Location: Doussal
(55.6167°N, 116.8333°W)
Time: 03:54:34
(UTC+00:00)

METEOR M2 - Pass Details

Date: 10 December 2023
Orbit: 818 x 826 km, 98.4° (Epoch: 25 February)

Event Time Altitude Azimuth Distance (km) Brightness Sun altitude
Rises 01:12:01 0° 184° (S) 3,355 ? -14.9°
Reaches altitude 10° 01:14:29 10° 191° (SSW) 2,426 ? -15.3°
Maximum altitude 01:19:35 43° 263° (W) 1,157 ? -16.0°
Drops below altitude 10° 01:24:43 10° 334° (NNW) 2,440 ? -16.7°
Sets 01:27:13 0° 341° (NNW) 3,377 ? -17.0°
